| time (UTC) | temp F | wind direction | speed knots | gust knots | rain 1hr in | rain 24hr in | rain mn in | humidity % | barometer mb |
| 20260506015738 | 51 | 55 | 1.7 | 1.7 | 0.09 | 0.31 | 0.31 | 97 | 1009.0 |
| 20260506015235 | 51 | 39 | 1.7 | 2.6 | 0.07 | 0.30 | 0.30 | 97 | 1009.1 |
| 20260506014732 | 51 | 59 | 1.7 | 1.7 | 0.02 | 0.29 | 0.29 | 97 | 1009.3 |
| 20260506014228 | 51 | 69 | 0.0 | 2.6 | 0.02 | 0.29 | 0.29 | 97 | 1009.0 |
| 20260506013726 | 51 | 49 | 0.9 | 1.7 | 0.02 | 0.29 | 0.29 | 97 | 1009.2 |
| 20260506013223 | 51 | 126 | 0.0 | 1.7 | 0.00 | 0.29 | 0.29 | 96 | 1008.9 |
| 20260506012719 | 51 | 82 | 1.7 | 2.6 | 0.07 | 0.29 | 0.29 | 96 | 1008.9 |
| 20260506012216 | 51 | 39 | 1.7 | 2.6 | 0.17 | 0.28 | 0.28 | 96 | 1008.9 |
| 20260506011713 | 51 | 56 | 1.7 | 1.7 | 0.14 | 0.28 | 0.28 | 96 | 1008.9 |
| 20260506011209 | 51 | 37 | 0.0 | 1.7 | 0.05 | 0.26 | 0.26 | 96 | 1008.9 |
| 20260506010708 | 51 | 65 | 1.7 | 3.5 | 0.00 | 0.25 | 0.25 | 96 | 1008.8 |
| 20260506010205 | 52 | 30 | 1.7 | 2.6 | 0.02 | 0.25 | 0.25 | 96 | 1008.7 |
| 20260506005702 | 52 | 13 | 1.7 | 2.6 | 0.02 | 0.25 | 0.25 | 96 | 1008.7 |
| 20260506005159 | 52 | 40 | 1.7 | 1.7 | 0.00 | 0.24 | 0.24 | 96 | 1008.7 |
| 20260506004655 | 53 | 61 | 1.7 | 1.7 | 0.05 | 0.24 | 0.24 | 96 | 1008.7 |
| 20260506004152 | 53 | 62 | 0.9 | 1.7 | 0.09 | 0.24 | 0.24 | 96 | 1008.9 |
| 20260506003648 | 53 | 62 | 1.7 | 2.6 | 0.12 | 0.24 | 0.24 | 95 | 1008.6 |
| 20260506003145 | 53 | 62 | 1.7 | 2.6 | 0.14 | 0.23 | 0.23 | 95 | 1008.7 |
| 20260506002641 | 53 | 56 | 1.7 | 2.6 | 0.19 | 0.22 | 0.22 | 95 | 1008.8 |
| 20260506002137 | 53 | 64 | 1.7 | 2.6 | 0.17 | 0.20 | 0.20 | 95 | 1008.9 |
| 20260506001633 | 53 | 63 | 1.7 | 1.7 | 0.17 | 0.18 | 0.18 | 94 | 1008.8 |
| 20260506001131 | 53 | 84 | 2.6 | 2.6 | 0.14 | 0.17 | 0.17 | 94 | 1008.8 |
| 20260506000628 | 53 | 116 | 1.7 | 3.5 | 0.21 | 0.16 | 0.16 | 93 | 1008.9 |
| 20260506000125 | 53 | 120 | 2.6 | 3.5 | 0.40 | 0.15 | 0.15 | 93 | 1009.1 |
| 20260505235623 | 53 | 40 | 3.5 | 3.5 | 0.54 | 0.12 | 0.12 | 92 | 1009.2 |
| 20260505235120 | 54 | 100 | 2.6 | 4.3 | 0.35 | 0.08 | 0.08 | 92 | 1008.8 |
| 20260505234617 | 55 | 305 | 1.7 | 3.5 | 0.17 | 0.03 | 0.03 | 91 | 1009.4 |
| 20260505234113 | 56 | 333 | 2.6 | 4.3 | 0.12 | 0.02 | 0.02 | 90 | 1008.5 |
| 20260505233611 | 57 | 10 | 2.6 | 3.5 | 0.00 | 0.00 | 0.00 | 90 | 1008.2 |
| 20260505233108 | 58 | 0 | 0.0 | 3.5 | 0.00 | 0.00 | 0.00 | 91 | 1007.9 |
| 20260505232606 | 58 | 31 | 1.7 | 2.6 | 0.00 | 0.00 | 0.00 | 91 | 1008.0 |
| 20260505232103 | 58 | 35 | 0.9 | 1.7 | 0.00 | 0.00 | 0.00 | 90 | 1008.1 |
| 20260505231600 | 59 | 56 | 1.7 | 1.7 | 0.00 | 0.00 | 0.00 | 90 | 1008.0 |
| 20260505231058 | 59 | 42 | 0.9 | 1.7 | 0.00 | 0.00 | 0.00 | 90 | 1007.9 |
| 20260505230556 | 59 | 54 | 0.9 | 1.7 | 0.00 | 0.00 | 0.00 | 89 | 1008.0 |
| 20260505230052 | 59 | 32 | 0.0 | 1.7 | 0.00 | 0.00 | 0.00 | 88 | 1008.0 |
| 20260505225549 | 59 | 48 | 1.7 | 2.6 | 0.00 | 0.00 | 0.00 | 87 | 1008.0 |
| 20260505225045 | 59 | 63 | 1.7 | 2.6 | 0.00 | 0.00 | 0.00 | 87 | 1008.0 |
| 20260505224542 | 60 | 122 | 0.9 | 1.7 | 0.00 | 0.00 | 0.00 | 87 | 1008.2 |
| 20260505224039 | 60 | 209 | 0.0 | 1.7 | 0.02 | 0.00 | 0.00 | 86 | 1008.3 |
| 20260505223536 | 60 | 15 | 0.9 | 1.7 | 0.02 | 0.00 | 0.00 | 87 | 1008.3 |
| 20260505223032 | 60 | 51 | 0.0 | 1.7 | 0.00 | 0.00 | 0.00 | 87 | 1008.5 |
| 20260505222529 | 60 | 47 | 1.7 | 2.6 | 0.00 | 0.00 | 0.00 | 87 | 1008.5 |
| 20260505222025 | 60 | 32 | 1.7 | 1.7 | 0.00 | 0.00 | 0.00 | 87 | 1008.6 |
| 20260505221523 | 60 | 13 | 0.0 | 2.6 | 0.00 | 0.00 | 0.00 | 86 | 1008.4 |
| 20260505221019 | 60 | 44 | 0.0 | 1.7 | 0.00 | 0.00 | 0.00 | 86 | 1008.4 |
| 20260505220516 | 60 | 51 | 1.7 | 2.6 | 0.00 | 0.00 | 0.00 | 87 | 1008.6 |
| 20260505220014 | 60 | 13 | 1.7 | 3.5 | 0.00 | 0.00 | 0.00 | 86 | 1008.8 |
| 20260505215512 | 61 | 0 | 0.9 | 2.6 | 0.00 | 0.00 | 0.00 | 85 | 1008.5 |
| 20260505215009 | 61 | 39 | 1.7 | 1.7 | 0.00 | 0.00 | 0.00 | 85 | 1008.4 |
| 20260505214508 | 61 | 36 | 1.7 | 2.6 | 0.00 | 0.00 | 0.00 | 83 | 1008.3 |
| 20260505214004 | 62 | 13 | 1.7 | 2.6 | 0.00 | 0.00 | 0.00 | 81 | 1007.9 |
| 20260505213502 | 62 | 336 | 1.7 | 3.5 | 0.00 | 0.00 | 0.00 | 80 | 1007.9 |
| 20260505212958 | 63 | 38 | 2.6 | 2.6 | 0.00 | 0.00 | 0.00 | 78 | 1007.7 |
| 20260505212454 | 63 | 49 | 2.6 | 2.6 | 0.00 | 0.00 | 0.00 | 78 | 1008.1 |
| 20260505211951 | 64 | 353 | 1.7 | 1.7 | 0.00 | 0.00 | 0.00 | 76 | 1007.7 |
| 20260505211449 | 64 | 212 | 0.0 | 2.6 | 0.00 | 0.00 | 0.00 | 74 | 1008.1 |
| 20260505210945 | 64 | 275 | 1.7 | 6.1 | 0.00 | 0.00 | 0.00 | 74 | 1008.1 |
| 20260505210442 | 64 | 173 | 1.7 | 2.6 | 0.00 | 0.00 | 0.00 | 74 | 1007.8 |
| 20260505205939 | 65 | 153 | 4.3 | 4.3 | 0.00 | 0.00 | 0.00 | 74 | 1007.7 |
| 20260505205437 | 65 | 164 | 2.6 | 3.5 | 0.00 | 0.00 | 0.00 | 70 | 1007.9 |
| 20260505204933 | 66 | 266 | 0.0 | 1.7 | 0.00 | 0.00 | 0.00 | 68 | 1007.8 |
| 20260505204432 | 66 | 217 | 0.0 | 2.6 | 0.00 | 0.00 | 0.00 | 68 | 1007.5 |
| 20260505203928 | 66 | 212 | 0.0 | 0.9 | 0.00 | 0.00 | 0.00 | 67 | 1007.5 |
| 20260505203425 | 66 | 213 | 0.9 | 2.6 | 0.00 | 0.00 | 0.00 | 67 | 1007.5 |
| 20260505202921 | 66 | 243 | 1.7 | 1.7 | 0.00 | 0.00 | 0.00 | 67 | 1007.4 |
| 20260505202418 | 66 | 208 | 0.9 | 1.7 | 0.00 | 0.00 | 0.00 | 68 | 1007.4 |
| 20260505201914 | 66 | 274 | 0.9 | 2.6 | 0.00 | 0.00 | 0.00 | 67 | 1007.7 |
| 20260505201411 | 66 | 266 | 0.9 | 1.7 | 0.00 | 0.00 | 0.00 | 67 | 1008.1 |
| 20260505200910 | 66 | 215 | 2.6 | 2.6 | 0.00 | 0.00 | 0.00 | 67 | 1007.8 |
| 20260505200406 | 66 | 269 | 0.0 | 1.7 | 0.00 | 0.00 | 0.00 | 65 | 1007.9 |
| 20260505195902 | 66 | 264 | 0.9 | 2.6 | 0.00 | 0.00 | 0.00 | 66 | 1007.9 |
| 20260505195359 | 66 | 149 | 0.0 | 1.7 | 0.00 | 0.00 | 0.00 | 66 | 1008.1 |
| 20260505194856 | 66 | 231 | 0.0 | 0.0 | 0.00 | 0.00 | 0.00 | 67 | 1007.7 |
| 20260505194354 | 66 | 236 | 0.9 | 2.6 | 0.00 | 0.00 | 0.00 | 66 | 1008.0 |
| 20260505193854 | 66 | 155 | 0.9 | 1.7 | 0.00 | 0.00 | 0.00 | 67 | 1007.8 |
| 20260505193352 | 66 | 262 | 0.9 | 1.7 | 0.00 | 0.00 | 0.00 | 68 | 1008.1 |
| 20260505192849 | 65 | 241 | 0.9 | 1.7 | 0.00 | 0.00 | 0.00 | 69 | 1008.0 |
| 20260505192348 | 65 | 232 | 1.7 | 1.7 | 0.00 | 0.00 | 0.00 | 70 | 1008.4 |
| 20260505191845 | 64 | 248 | 2.6 | 3.5 | 0.00 | 0.00 | 0.00 | 68 | 1008.4 |
| 20260505191344 | 64 | 137 | 0.0 | 2.6 | 0.00 | 0.00 | 0.00 | 68 | 1008.6 |
| 20260505190840 | 64 | 224 | 3.5 | 4.3 | 0.00 | 0.00 | 0.00 | 69 | 1008.5 |
| 20260505190335 | 66 | 264 | 5.2 | 8.7 | 0.00 | 0.00 | 0.00 | 65 | 1008.7 |
| 20260505185831 | 66 | 245 | 2.6 | 5.2 | 0.00 | 0.00 | 0.00 | 63 | 1008.6 |
| 20260505185328 | 66 | 237 | 0.9 | 4.3 | 0.00 | 0.00 | 0.00 | 63 | 1008.6 |
| 20260505184824 | 67 | 227 | 1.7 | 2.6 | 0.00 | 0.00 | 0.00 | 62 | 1008.4 |
| 20260505184321 | 67 | 264 | 0.0 | 3.5 | 0.00 | 0.00 | 0.00 | 62 | 1008.4 |
| 20260505183818 | 68 | 218 | 2.6 | 3.5 | 0.00 | 0.00 | 0.00 | 61 | 1008.4 |
| 20260505183315 | 68 | 233 | 2.6 | 6.1 | 0.00 | 0.00 | 0.00 | 60 | 1008.3 |
| 20260505182812 | 68 | 260 | 1.7 | 5.2 | 0.00 | 0.00 | 0.00 | 60 | 1008.2 |
| 20260505182308 | 68 | 279 | 2.6 | 7.8 | 0.00 | 0.00 | 0.00 | 60 | 1008.3 |
| 20260505181805 | 68 | 210 | 1.7 | 4.3 | 0.00 | 0.00 | 0.00 | 61 | 1008.1 |
| 20260505181303 | 68 | 239 | 1.7 | 2.6 | 0.00 | 0.00 | 0.00 | 60 | 1008.3 |
| 20260505180759 | 68 | 204 | 1.7 | 1.7 | 0.00 | 0.00 | 0.00 | 61 | 1008.1 |
| 20260505180255 | 68 | 250 | 3.5 | 5.2 | 0.00 | 0.00 | 0.00 | 61 | 1008.2 |
| 20260505175752 | 68 | 263 | 1.7 | 5.2 | 0.00 | 0.00 | 0.00 | 61 | 1008.1 |
| 20260505175248 | 68 | 229 | 2.6 | 6.1 | 0.00 | 0.00 | 0.00 | 61 | 1008.2 |
| 20260505174745 | 68 | 232 | 2.6 | 2.6 | 0.00 | 0.00 | 0.00 | 62 | 1008.1 |
| 20260505174242 | 68 | 233 | 1.7 | 3.5 | 0.00 | 0.00 | 0.00 | 60 | 1008.0 |
| 20260505173738 | 68 | 191 | 0.9 | 9.6 | 0.00 | 0.00 | 0.00 | 62 | 1007.9 |
| 20260505173235 | 68 | 245 | 3.5 | 3.5 | 0.00 | 0.00 | 0.00 | 60 | 1007.8 |
| 20260505172732 | 68 | 280 | 3.5 | 3.5 | 0.00 | 0.00 | 0.00 | 59 | 1007.9 |
| 20260505172229 | 68 | 237 | 1.7 | 4.3 | 0.00 | 0.00 | 0.00 | 59 | 1007.9 |
| 20260505171729 | 69 | 258 | 0.9 | 3.5 | 0.00 | 0.00 | 0.00 | 60 | 1007.8 |
| 20260505171226 | 69 | 214 | 1.7 | 4.3 | 0.00 | 0.00 | 0.00 | 60 | 1007.9 |
| 20260505170723 | 69 | 229 | 3.5 | 4.3 | 0.00 | 0.00 | 0.00 | 60 | 1007.7 |
| 20260505170220 | 69 | 223 | 3.5 | 8.7 | 0.00 | 0.00 | 0.00 | 56 | 1007.8 |
| 20260505165715 | 69 | 173 | 3.5 | 9.6 | 0.00 | 0.00 | 0.00 | 58 | 1007.8 |
| 20260505165211 | 69 | 264 | 1.7 | 4.3 | 0.00 | 0.00 | 0.00 | 58 | 1007.8 |
| 20260505164707 | 69 | 274 | 2.6 | 8.7 | 0.00 | 0.00 | 0.00 | 56 | 1007.9 |
| 20260505164204 | 70 | 239 | 1.7 | 3.5 | 0.00 | 0.00 | 0.00 | 57 | 1007.7 |
| 20260505163702 | 70 | 281 | 3.5 | 4.3 | 0.00 | 0.00 | 0.00 | 56 | 1007.8 |
| 20260505163201 | 71 | 182 | 1.7 | 5.2 | 0.00 | 0.00 | 0.00 | 56 | 1007.7 |
| 20260505162658 | 71 | 256 | 3.5 | 9.6 | 0.00 | 0.00 | 0.00 | 56 | 1007.8 |
| 20260505162155 | 71 | 258 | 3.5 | 5.2 | 0.00 | 0.00 | 0.00 | 56 | 1007.2 |
| 20260505161651 | 71 | 246 | 4.3 | 7.0 | 0.00 | 0.00 | 0.00 | 55 | 1007.4 |
| 20260505161149 | 71 | 138 | 0.9 | 4.3 | 0.00 | 0.00 | 0.00 | 54 | 1007.5 |
| 20260505160647 | 71 | 281 | 3.5 | 5.2 | 0.00 | 0.00 | 0.00 | 57 | 1007.4 |
| 20260505160144 | 71 | 203 | 3.5 | 7.8 | 0.00 | 0.00 | 0.00 | 55 | 1007.2 |
| 20260505153123 | 68 | 254 | 3.5 | 3.5 | 0.00 | 0.00 | 0.00 | 62 | 1007.9 |
| 20260505152620 | 68 | 226 | 4.3 | 4.3 | 0.00 | 0.00 | 0.00 | 61 | 1007.8 |
| 20260505152115 | 68 | 228 | 0.9 | 9.6 | 0.00 | 0.00 | 0.00 | 60 | 1007.8 |
| 20260505151611 | 67 | 59 | 0.0 | 7.8 | 0.00 | 0.00 | 0.00 | 62 | 1007.8 |
| 20260505151109 | 67 | 307 | 6.1 | 7.8 | 0.00 | 0.00 | 0.00 | 60 | 1008.0 |
| 20260505150605 | 68 | 329 | 3.5 | 8.7 | 0.00 | 0.00 | 0.00 | 59 | 1007.9 |
| 20260505140530 | 65 | 177 | 5.2 | 7.0 | 0.00 | 0.00 | 0.00 | 67 | 1007.2 |
| 20260505124943 | 61 | 243 | 0.0 | 5.2 | 0.00 | 0.00 | 0.00 | 75 | 1007.1 |
| 20260505124440 | 61 | 200 | 1.7 | 9.6 | 0.00 | 0.00 | 0.00 | 75 | 1006.8 |
| 20260505123936 | 61 | 150 | 3.5 | 4.3 | 0.00 | 0.00 | 0.00 | 74 | 1006.7 |
| 20260505123433 | 61 | 145 | 0.0 | 2.6 | 0.00 | 0.00 | 0.00 | 74 | 1006.6 |
| 20260505122929 | 61 | 132 | 3.5 | 4.3 | 0.00 | 0.00 | 0.00 | 74 | 1006.5 |
| 20260505122427 | 62 | 162 | 4.3 | 4.3 | 0.00 | 0.00 | 0.00 | 74 | 1006.6 |
| 20260505121923 | 62 | 137 | 0.9 | 2.6 | 0.00 | 0.00 | 0.00 | 72 | 1006.7 |
| 20260505121420 | 62 | 175 | 2.6 | 7.8 | 0.00 | 0.00 | 0.00 | 70 | 1006.8 |
| 20260505120916 | 63 | 173 | 2.6 | 5.2 | 0.00 | 0.00 | 0.00 | 69 | 1007.0 |
| 20260505120413 | 63 | 176 | 1.7 | 10.4 | 0.00 | 0.00 | 0.00 | 68 | 1006.8 |
| 20260505115912 | 63 | 239 | 2.6 | 3.5 | 0.00 | 0.00 | 0.00 | 67 | 1006.7 |
| 20260505115408 | 63 | 157 | 1.7 | 7.8 | 0.00 | 0.00 | 0.00 | 67 | 1006.7 |
| 20260505114907 | 63 | 157 | 1.7 | 7.8 | 0.00 | 0.00 | 0.00 | 66 | 1006.7 |
| 20260505114402 | 63 | 195 | 1.7 | 7.0 | 0.00 | 0.00 | 0.00 | 66 | 1006.8 |
| 20260505113859 | 63 | 181 | 2.6 | 2.6 | 0.00 | 0.00 | 0.00 | 68 | 1006.8 |
| 20260505113356 | 63 | 182 | 1.7 | 5.2 | 0.00 | 0.00 | 0.00 | 67 | 1006.8 |
| 20260505112851 | 63 | 158 | 0.0 | 3.5 | 0.00 | 0.00 | 0.00 | 67 | 1006.5 |
| 20260505112349 | 63 | 122 | 0.9 | 3.5 | 0.00 | 0.00 | 0.00 | 66 | 1006.6 |
| 20260505111845 | 63 | 176 | 2.6 | 6.1 | 0.00 | 0.00 | 0.00 | 66 | 1006.4 |
| 20260505111340 | 63 | 187 | 3.5 | 5.2 | 0.00 | 0.00 | 0.00 | 66 | 1006.3 |
| 20260505110836 | 63 | 190 | 1.7 | 4.3 | 0.00 | 0.00 | 0.00 | 65 | 1006.4 |
| 20260505110334 | 63 | 180 | 1.7 | 1.7 | 0.00 | 0.00 | 0.00 | 65 | 1006.1 |
| 20260505101809 | 64 | 161 | 4.3 | 5.2 | 0.00 | 0.00 | 0.00 | 65 | 1005.6 |
| 20260505101304 | 64 | 177 | 3.5 | 4.3 | 0.00 | 0.00 | 0.00 | 65 | 1005.4 |
| 20260505100800 | 64 | 359 | 1.7 | 7.8 | 0.00 | 0.00 | 0.00 | 64 | 1005.5 |
| 20260505100257 | 64 | 288 | 0.0 | 3.5 | 0.00 | 0.00 | 0.00 | 64 | 1005.5 |
| 20260505095753 | 64 | 147 | 3.5 | 7.0 | 0.00 | 0.00 | 0.00 | 63 | 1005.5 |
| 20260505095251 | 64 | 172 | 1.7 | 5.2 | 0.00 | 0.00 | 0.00 | 63 | 1005.3 |
| 20260505094746 | 64 | 120 | 3.5 | 7.8 | 0.00 | 0.00 | 0.00 | 64 | 1005.2 |
| 20260505094243 | 64 | 175 | 2.6 | 4.3 | 0.00 | 0.00 | 0.00 | 64 | 1005.2 |
| 20260505093739 | 64 | 176 | 2.6 | 6.1 | 0.00 | 0.00 | 0.00 | 63 | 1005.3 |
| 20260505093237 | 64 | 146 | 2.6 | 4.3 | 0.00 | 0.00 | 0.00 | 64 | 1005.1 |
| 20260505092733 | 64 | 138 | 3.5 | 5.2 | 0.00 | 0.00 | 0.00 | 63 | 1005.1 |
| 20260505092232 | 64 | 190 | 1.7 | 3.5 | 0.00 | 0.00 | 0.00 | 64 | 1005.1 |
| 20260505091729 | 64 | 203 | 1.7 | 2.6 | 0.00 | 0.00 | 0.00 | 64 | 1005.1 |
| 20260505091227 | 64 | 156 | 3.5 | 3.5 | 0.00 | 0.00 | 0.00 | 64 | 1005.1 |
| 20260505090724 | 64 | 233 | 0.9 | 4.3 | 0.00 | 0.00 | 0.00 | 63 | 1005.2 |
| 20260505090223 | 64 | 157 | 2.6 | 4.3 | 0.00 | 0.00 | 0.00 | 63 | 1005.1 |
| 20260505085719 | 64 | 192 | 1.7 | 6.1 | 0.00 | 0.00 | 0.00 | 64 | 1005.2 |
| 20260505085217 | 64 | 163 | 2.6 | 4.3 | 0.00 | 0.00 | 0.00 | 64 | 1005.1 |
| 20260505084715 | 65 | 223 | 3.5 | 3.5 | 0.00 | 0.00 | 0.00 | 64 | 1005.1 |
| 20260505084214 | 65 | 145 | 1.7 | 7.0 | 0.00 | 0.00 | 0.00 | 64 | 1004.8 |
| 20260505083710 | 65 | 180 | 3.5 | 7.8 | 0.00 | 0.00 | 0.00 | 64 | 1005.0 |
| 20260505083207 | 65 | 93 | 2.6 | 3.5 | 0.00 | 0.00 | 0.00 | 63 | 1004.9 |
| 20260505082703 | 64 | 210 | 1.7 | 4.3 | 0.00 | 0.00 | 0.00 | 64 | 1004.9 |
| 20260505082200 | 64 | 150 | 1.7 | 3.5 | 0.00 | 0.00 | 0.00 | 64 | 1005.0 |
| 20260505081655 | 64 | 156 | 2.6 | 2.6 | 0.00 | 0.00 | 0.00 | 64 | 1004.6 |
| 20260505081153 | 64 | 218 | 0.0 | 7.8 | 0.00 | 0.00 | 0.00 | 64 | 1004.8 |
| 20260505080650 | 64 | 257 | 1.7 | 3.5 | 0.00 | 0.00 | 0.00 | 64 | 1004.6 |
| 20260505080146 | 64 | 139 | 3.5 | 7.8 | 0.00 | 0.00 | 0.00 | 64 | 1004.8 |
| 20260505075642 | 64 | 128 | 1.7 | 2.6 | 0.00 | 0.00 | 0.00 | 65 | 1004.5 |
| 20260505075139 | 64 | 191 | 0.9 | 4.3 | 0.00 | 0.00 | 0.00 | 65 | 1004.5 |
| 20260505074636 | 64 | 118 | 1.7 | 2.6 | 0.00 | 0.00 | 0.00 | 65 | 1004.6 |
| 20260505074133 | 63 | 222 | 1.7 | 2.6 | 0.00 | 0.00 | 0.00 | 66 | 1004.5 |
| 20260505073631 | 63 | 187 | 3.5 | 4.3 | 0.00 | 0.00 | 0.00 | 66 | 1004.4 |
| 20260505073129 | 63 | 204 | 1.7 | 4.3 | 0.00 | 0.00 | 0.00 | 66 | 1004.4 |
| 20260505072624 | 63 | 179 | 0.9 | 4.3 | 0.00 | 0.00 | 0.00 | 66 | 1004.5 |
| 20260505072121 | 64 | 189 | 1.7 | 4.3 | 0.00 | 0.00 | 0.00 | 66 | 1004.5 |
| 20260505071617 | 63 | 184 | 5.2 | 7.8 | 0.00 | 0.00 | 0.00 | 65 | 1004.5 |
| 20260505071114 | 63 | 301 | 0.9 | 1.7 | 0.00 | 0.00 | 0.00 | 66 | 1004.3 |
| 20260505070611 | 63 | 223 | 0.9 | 4.3 | 0.00 | 0.00 | 0.00 | 66 | 1004.4 |
| 20260505070108 | 63 | 152 | 2.6 | 4.3 | 0.00 | 0.00 | 0.00 | 67 | 1004.3 |
| 20260505065603 | 63 | 132 | 2.6 | 7.8 | 0.00 | 0.00 | 0.00 | 66 | 1004.5 |
| 20260505065100 | 63 | 172 | 0.9 | 3.5 | 0.00 | 0.00 | 0.00 | 66 | 1004.7 |
| 20260505064557 | 63 | 171 | 2.6 | 3.5 | 0.00 | 0.00 | 0.00 | 67 | 1004.5 |
| 20260505064056 | 63 | 212 | 0.0 | 3.5 | 0.00 | 0.00 | 0.00 | 67 | 1004.6 |
| 20260505063553 | 63 | 131 | 2.6 | 3.5 | 0.00 | 0.00 | 0.00 | 66 | 1004.5 |
| 20260505063049 | 63 | 176 | 0.9 | 3.5 | 0.00 | 0.00 | 0.00 | 67 | 1004.8 |
| 20260505062545 | 64 | 115 | 1.7 | 2.6 | 0.00 | 0.00 | 0.00 | 66 | 1004.9 |
| 20260505062042 | 64 | 149 | 2.6 | 2.6 | 0.00 | 0.00 | 0.00 | 66 | 1004.9 |
| 20260505061540 | 64 | 152 | 1.7 | 4.3 | 0.00 | 0.00 | 0.00 | 65 | 1004.9 |
| 20260505061038 | 64 | 181 | 1.7 | 6.1 | 0.00 | 0.00 | 0.00 | 66 | 1005.0 |
| 20260505060535 | 64 | 168 | 0.0 | 3.5 | 0.00 | 0.00 | 0.00 | 66 | 1005.1 |
| 20260505060032 | 64 | 153 | 2.6 | 3.5 | 0.00 | 0.00 | 0.00 | 66 | 1005.1 |
| 20260505055527 | 63 | 181 | 1.7 | 2.6 | 0.00 | 0.00 | 0.00 | 67 | 1005.3 |
| 20260505055024 | 63 | 128 | 2.6 | 4.3 | 0.00 | 0.00 | 0.00 | 67 | 1005.4 |
| 20260505054521 | 63 | 172 | 2.6 | 3.5 | 0.00 | 0.00 | 0.00 | 67 | 1005.5 |
| 20260505054019 | 63 | 174 | 0.9 | 2.6 | 0.00 | 0.00 | 0.00 | 68 | 1005.4 |
| 20260505053516 | 63 | 163 | 1.7 | 1.7 | 0.00 | 0.00 | 0.00 | 68 | 1005.5 |
| 20260505053013 | 63 | 182 | 2.6 | 5.2 | 0.00 | 0.00 | 0.00 | 68 | 1005.5 |
| 20260505052510 | 63 | 156 | 1.7 | 2.6 | 0.00 | 0.00 | 0.00 | 68 | 1005.5 |
| 20260505052007 | 63 | 160 | 1.7 | 2.6 | 0.00 | 0.00 | 0.00 | 68 | 1005.7 |
| 20260505051503 | 63 | 178 | 3.5 | 3.5 | 0.00 | 0.00 | 0.00 | 68 | 1005.6 |
| 20260505051002 | 63 | 165 | 2.6 | 2.6 | 0.00 | 0.00 | 0.00 | 67 | 1005.5 |
| 20260505050500 | 63 | 179 | 1.7 | 3.5 | 0.00 | 0.00 | 0.00 | 68 | 1005.6 |
| 20260505041427 | 63 | 230 | 1.7 | 3.5 | 0.00 | 0.00 | 0.00 | 64 | 1005.8 |
| 20260505040924 | 64 | 204 | 1.7 | 5.2 | 0.00 | 0.00 | 0.00 | 64 | 1005.9 |
| 20260505040422 | 64 | 123 | 5.2 | 7.0 | 0.00 | 0.00 | 0.00 | 63 | 1005.8 |
| 20260505035918 | 64 | 165 | 3.5 | 4.3 | 0.00 | 0.00 | 0.00 | 63 | 1005.9 |
| 20260505035415 | 64 | 146 | 3.5 | 3.5 | 0.00 | 0.00 | 0.00 | 63 | 1006.0 |
| 20260505034912 | 64 | 181 | 0.9 | 3.5 | 0.00 | 0.00 | 0.00 | 62 | 1005.9 |
| 20260505034408 | 64 | 141 | 2.6 | 3.5 | 0.00 | 0.00 | 0.00 | 62 | 1005.9 |
| 20260505033906 | 64 | 180 | 1.7 | 2.6 | 0.00 | 0.00 | 0.00 | 63 | 1006.1 |
| 20260505033402 | 64 | 154 | 2.6 | 3.5 | 0.00 | 0.00 | 0.00 | 62 | 1005.9 |
| 20260505032901 | 64 | 154 | 6.1 | 7.8 | 0.00 | 0.00 | 0.00 | 62 | 1005.9 |
| 20260505032357 | 64 | 182 | 1.7 | 3.5 | 0.00 | 0.00 | 0.00 | 63 | 1005.9 |
| 20260505031853 | 64 | 183 | 1.7 | 6.1 | 0.00 | 0.00 | 0.00 | 62 | 1005.8 |
| 20260505031350 | 64 | 129 | 1.7 | 2.6 | 0.00 | 0.00 | 0.00 | 62 | 1005.9 |
| 20260505030848 | 64 | 125 | 2.6 | 3.5 | 0.00 | 0.00 | 0.00 | 61 | 1006.0 |
| 20260505030344 | 64 | 151 | 5.2 | 5.2 | 0.00 | 0.00 | 0.00 | 61 | 1005.8 |
| 20260505025839 | 65 | 160 | 2.6 | 4.3 | 0.00 | 0.00 | 0.00 | 61 | 1005.9 |
| 20260505025337 | 64 | 184 | 1.7 | 5.2 | 0.00 | 0.00 | 0.00 | 62 | 1006.1 |
| 20260505024836 | 65 | 148 | 3.5 | 3.5 | 0.00 | 0.00 | 0.00 | 61 | 1006.0 |
| 20260505024333 | 65 | 187 | 2.6 | 3.5 | 0.00 | 0.00 | 0.00 | 61 | 1006.1 |
| 20260505023830 | 65 | 127 | 0.9 | 2.6 | 0.00 | 0.00 | 0.00 | 61 | 1006.3 |
| 20260505023326 | 65 | 149 | 2.6 | 4.3 | 0.00 | 0.00 | 0.00 | 61 | 1006.2 |
| 20260505022824 | 65 | 176 | 1.7 | 3.5 | 0.00 | 0.00 | 0.00 | 60 | 1006.3 |
| 20260505022321 | 65 | 140 | 1.7 | 3.5 | 0.00 | 0.00 | 0.00 | 60 | 1006.5 |
| 20260505021818 | 65 | 179 | 1.7 | 3.5 | 0.00 | 0.00 | 0.00 | 60 | 1006.3 |
| 20260505021315 | 65 | 123 | 3.5 | 4.3 | 0.00 | 0.00 | 0.00 | 60 | 1006.3 |
| 20260505020810 | 65 | 185 | 0.0 | 1.7 | 0.00 | 0.00 | 0.00 | 60 | 1006.4 |
| 20260505020306 | 66 | 153 | 6.1 | 7.8 | 0.00 | 0.00 | 0.00 | 59 | 1006.4 |